User: anonymous   Login
Location: Terra Rouge Observatory
(46.0000°N, 62.7500°W)
Time: 21:55:29
(UTC-03:00)
Language:

NOSS 3-1 (A) - Orbit

View from above orbital plane
View from above orbital plane
View from above satellite
View from above satellite

Ground track
Ground track

The orbit data is extracted from the following two-line orbital elements,

1 26905U 01040A   18098.07156974 0.00000000  00000-0  00000-0 0    05
2 26905  63.4150   0.5318 0399000 358.7276   1.2724 13.40760328    09
Epoch (UTC): 08 April 2018 01:43:03
Eccentricity: 0.0399000
inclination: 63.4150°
perigee height: 808 km
apogee height: 1405 km
right ascension of ascending node: 0.5318°
argument of perigee: 358.7276°
revolutions per day: 13.40760328
mean anomaly at epoch: 1.2724°
orbit number at epoch: 0

The dashed part of the orbit path shows where the satellite is in the earth's shadow,  

DLR